Regional Weather Roundup
Issued by NWS Northern Indiana

Home | Current Version | Previous Version | Text Only | Print | Product List | Glossary Off
Versions: 1 2 3 4 5 6 7 8 9 10 11 12 13 14 15 16 17 18 19 20 21 22 23 24 25 26 27 28 29 30 31 32 33 34 35 36 37 38 39 40 41 42 43 44 45 46 47 48 49 50

547
ASUS43 KIWX 072200
RWRIWX

KIWX WEATHER ROUNDUP
NATIONAL WEATHER SERVICE NORTHERN INDIANA
500 PM EST WED DEC 07 2016

NOTE: "FAIR" INDICATES FEW OR NO CLOUDS BELOW 12,000 FEET WITH NO
SIGNIFICANT WEATHER AND/OR OBSTRUCTIONS TO VISIBILITY.

* THESE STATIONS ARE NOT UNDER NWS QUALITY CONTROL. THEY ALSO MAY NOT
  REPORT WEATHER SUCH AS PRECIPITATION OR FOG.

INZ001>027-072300-
NORTHERN INDIANA

CITY           SKY/WX    TMP DP  RH WIND       PRES   REMARKS
GARY*          CLOUDY    30  21  69 W15G29    30.12R WCI  19
SOUTH BEND     CLOUDY    29  21  72 SW14      30.09R WCI  18
ELKHART*       CLOUDY    30  19  64 W13       30.08R WCI  20
GOSHEN         CLOUDY    32  21  64 W9        30.07R WCI  24
ANGOLA*        CLEAR     32  25  74 W9        30.05R WCI  24
FORT WAYNE     CLOUDY    33  24  69 W10       30.10R WCI  25
PERU/GRISSOM   PTCLDY    31  23  72 W13       30.10R WCI  22

$$
INZ028>050-072300-
CENTRAL INDIANA

CITY           SKY/WX    TMP DP  RH WIND       PRES   REMARKS
LAFAYETTE      PTCLDY    31  23  72 W12       30.15R WCI  22
KOKOMO*        MOCLDY    33  23  66 W10       30.13R WCI  25
MUNCIE*        CLOUDY    35  22  58 W6        30.11S WCI  30
INDIANAPOLIS   CLOUDY    35  20  54 W15       30.14R WCI  25

$$
MIZ043>046-050>051-056>058-064>065-071>073-077>080-072300-
SOUTHWEST LOWER MICHIGAN

CITY           SKY/WX    TMP DP  RH WIND       PRES   REMARKS
BATTLE CREEK   CLOUDY    32  23  69 W14       30.03R WCI  22
BENTON HARBOR  CLOUDY    33  23  66 SW14G24   30.06R WCI  23
COLDWATER*     PTCLDY    32  21  65 W13       30.04R WCI  22
HILLSDALE*     PTCLDY    30  23  74 SW9       30.02R WCI  22
HOLLAND        CLOUDY    34  25  69 W20G28    30.02R WCI  23
GRAND RAPIDS   CLOUDY    32  24  72 SW18      30.00S WCI  20
KALAMAZOO      CLOUDY    32  21  64 SW12G21   30.04R WCI  23
STURGIS*       MOCLDY    31  22  69 W13       30.05R WCI  21
THREE RIVERS*  FAIR      31  22  68 W8        30.06R WCI  23

$$
OHZ001>008-015>018-024>025-072300-
NORTHWEST OHIO

CITY           SKY/WX    TMP DP  RH WIND       PRES   REMARKS
DEFIANCE       PTCLDY    34  23  64 W8        30.08R WCI  27
FINDLAY        CLOUDY    35  23  61 SW10      30.08R WCI  27
TOLEDO EXPRESS PTCLDY    33  23  66 SW12      30.05S WCI  24
TOLEDO METCALF PTCLDY    34  26  72 SW12      30.07R WCI  25
LIMA           CLOUDY    33  26  75 W8        30.08R WCI  26

$$
AND FOR LAKE MICHIGAN COASTAL AND OPEN LAKE BUOY OBSERVATIONS

STATION/POSITION TEMP    WIND        PRES    VSBY  WAVE
                 AIR SEA DIR/SP/G                  HT/PER
                 (F)     (DEG/KT/KT) (MB)    (MI)  (FT/S)
CALUMET HARBOR    27     230/ 13/ 20 1018.8R
MICHIGAN CITY     30     190/ 16/ 18   N/A
BURNS HARBOR      31     240/ 14/ 20 1019.6S
SAINT JOSEPH      35     230/ 21     1017.9F

$$
&&




USA.gov is the U.S. government's official web portal to all federal, state and local government web resources and services.